28-07-2022, 00:00:00,    133,    0.0,   15.1,   0.00,   0.00, 1015.1,   52.3, -999.0
28-07-2022, 00:00:10,    134,    0.0,   15.1,   0.00,   0.00, 1015.1,   52.5, -999.0
28-07-2022, 00:00:20,    134,    0.3,   14.9,   0.00,   0.00, 1015.2,   52.6, -999.0
28-07-2022, 00:00:30,    134,    0.0,   15.0,   0.00,   0.00, 1015.1,   52.1, -999.0
28-07-2022, 00:00:40,    133,    0.0,   15.0,   0.00,   0.00, 1015.1,   52.3, -999.0
28-07-2022, 00:00:50,    133,    0.0,   15.0,   0.00,   0.00, 1015.1,   52.6, -999.0
28-07-2022, 00:01:00,    133,    0.0,   15.1,   0.00,   0.00, 1015.1,   52.5, -999.0
28-07-2022, 00:01:10,    133,    0.0,   15.1,   0.00,   0.00, 1015.1,   52.6, -999.0
28-07-2022, 00:01:20,    133,    0.0,   15.0,   0.00,   0.00, 1015.1,   52.5, -999.0
28-07-2022, 00:01:30,    134,    0.0,   15.1,   0.00,   0.00, 1015.1,   52.6, -999.0
28-07-2022, 00:01:40,    133,    0.0,   14.9,   0.00,   0.00, 1015.1,   52.6, -999.0
28-07-2022, 00:01:50,    133,    0.0,   15.1,   0.00,   0.00, 1015.1,   52.5, -999.0
28-07-2022, 00:02:00,    133,    0.0,   15.1,   0.00,   0.00, 1015.1,   52.4, -999.0
28-07-2022, 00:02:10,    133,    0.0,   15.1,   0.00,   0.00, 1015.1,   52.6, -999.0
28-07-2022, 00:02:20,    133,    0.0,   15.0,   0.00,   0.00, 1015.1,   52.6, -999.0
28-07-2022, 00:02:29,    133,    0.0,   15.0,   0.00,   0.00, 1015.1,   52.4, -999.0
28-07-2022, 00:02:39,    133,    0.0,   15.0,   0.00,   0.00, 1015.1,   52.2, -999.0
28-07-2022, 00:02:50,    133,    0.0,   15.0,   0.00,   0.00, 1015.1,   52.3, -999.0
28-07-2022, 00:02:59,    133,    0.0,   15.0,   0.00,   0.00, 1015.1,   52.4, -999.0
28-07-2022, 00:03:09,    133,    0.0,   15.0,   0.00,   0.00, 1015.1,   52.5, -999.0
28-07-2022, 00:03:19,    133,    0.0,   15.0,   0.00,   0.00, 1015.1,   52.6, -999.0
28-07-2022, 00:03:29,    133,    0.0,   15.1,   0.00,   0.00, 1015.1,   52.5, -999.0
28-07-2022, 00:03:39,    133,    0.0,   15.0,   0.00,   0.00, 1015.1,   52.5, -999.0
28-07-2022, 00:03:49,    133,    0.0,   15.0,   0.00,   0.00, 1015.1,   52.6, -999.0
28-07-2022, 00:03:59,    133,    0.0,   15.1,   0.00,   0.00, 1015.1,   52.6, -999.0
28-07-2022, 00:04:09,    133,    0.0,   15.1,   0.00,   0.00, 1015.1,   52.5, -999.0
28-07-2022, 00:04:19,    133,    0.0,   15.1,   0.00,   0.00, 1015.1,   52.5, -999.0
28-07-2022, 00:04:29,    133,    0.0,   15.0,   0.00,   0.00, 1015.1,   52.6, -999.0
28-07-2022, 00:04:39,    133,    0.0,   15.0,   0.00,   0.00, 1015.1,   52.5, -999.0
28-07-2022, 00:04:49,    131,    0.0,   15.0,   0.00,   0.00, 1015.1,   52.0, -999.0
28-07-2022, 00:04:59,    131,    0.0,   15.0,   0.00,   0.00, 1015.1,   51.7, -999.0
28-07-2022, 00:05:09,    131,    0.0,   15.0,   0.00,   0.00, 1015.1,   51.7, -999.0
28-07-2022, 00:05:19,    127,    0.5,   15.1,   0.00,   0.00, 1015.1,   52.0, -999.0
28-07-2022, 00:05:29,    127,    1.3,   15.2,   0.00,   0.00, 1015.2,   52.5, -999.0
28-07-2022, 00:05:38,    127,    0.7,   15.1,   0.00,   0.00, 1015.2,   52.2, -999.0
28-07-2022, 00:05:49,    127,    0.5,   15.1,   0.00,   0.00, 1015.2,   52.1, -999.0
28-07-2022, 00:05:59,    127,    0.1,   15.0,   0.00,   0.00, 1015.1,   52.0, -999.0
28-07-2022, 00:06:08,    127,    0.0,   15.0,   0.00,   0.00, 1015.1,   52.0, -999.0
28-07-2022, 00:06:18,    126,    0.0,   14.9,   0.00,   0.00, 1015.1,   52.1, -999.0
28-07-2022, 00:06:29,    126,    0.0,   15.1,   0.00,   0.00, 1015.1,   52.0, -999.0
28-07-2022, 00:06:38,    127,    0.0,   15.1,   0.00,   0.00, 1015.1,   52.0, -999.0
28-07-2022, 00:06:48,    127,    0.0,   15.0,   0.00,   0.00, 1015.1,   52.1, -999.0
28-07-2022, 00:06:58,    127,    0.0,   15.1,   0.00,   0.00, 1015.1,   52.0, -999.0
28-07-2022, 00:07:08,    127,    0.0,   15.0,   0.00,   0.00, 1015.1,   52.1, -999.0
28-07-2022, 00:07:18,    127,    0.0,   15.1,   0.00,   0.00, 1015.1,   52.1, -999.0
28-07-2022, 00:07:28,    126,    0.0,   15.0,   0.00,   0.00, 1015.1,   52.1, -999.0
28-07-2022, 00:07:38,    127,    0.0,   15.1,   0.00,   0.00, 1015.1,   52.0, -999.0
28-07-2022, 00:07:48,    127,    0.0,   15.0,   0.00,   0.00, 1015.1,   52.0, -999.0
28-07-2022, 00:07:58,    127,    0.0,   15.0,   0.00,   0.00, 1015.1,   52.0, -999.0
28-07-2022, 00:08:08,    126,    0.0,   15.0,   0.00,   0.00, 1015.1,   52.1, -999.0
28-07-2022, 00:08:18,    126,    0.0,   15.1,   0.00,   0.00, 1015.1,   52.1, -999.0
28-07-2022, 00:08:28,    127,    0.0,   15.0,   0.00,   0.00, 1015.1,   52.1, -999.0
28-07-2022, 00:08:38,    126,    0.3,   15.1,   0.00,   0.00, 1015.2,   52.3, -999.0
28-07-2022, 00:08:47,    127,    0.0,   14.9,   0.00,   0.00, 1015.1,   52.2, -999.0
28-07-2022, 00:08:58,    126,    0.0,   15.1,   0.00,   0.00, 1015.1,   52.0, -999.0
28-07-2022, 00:09:08,    127,    0.2,   15.0,   0.00,   0.00, 1015.2,   52.3, -999.0
28-07-2022, 00:09:17,    127,    0.0,   15.0,   0.00,   0.00, 1015.2,   52.1, -999.0
28-07-2022, 00:09:27,    127,    0.0,   14.9,   0.00,   0.00, 1015.1,   51.9, -999.0
28-07-2022, 00:09:37,    127,    0.0,   15.0,   0.00,   0.00, 1015.1,   51.9, -999.0
28-07-2022, 00:09:47,    127,    0.0,   15.0,   0.00,   0.00, 1015.1,   52.0, -999.0
28-07-2022, 00:09:57,    127,    0.0,   14.8,   0.00,   0.00, 1015.1,   52.0, -999.0
28-07-2022, 00:10:07,    127,    0.0,   14.9,   0.00,   0.00, 1015.1,   52.1, -999.0
28-07-2022, 00:10:17,    126,    0.0,   14.9,   0.00,   0.00, 1015.1,   52.2, -999.0
28-07-2022, 00:10:27,    126,    0.0,   14.9,   0.00,   0.00, 1015.1,   52.1, -999.0
28-07-2022, 00:10:37,    127,    0.0,   14.9,   0.00,   0.00, 1015.1,   52.1, -999.0
28-07-2022, 00:10:47,    127,    0.0,   14.9,   0.00,   0.00, 1015.1,   52.2, -999.0
28-07-2022, 00:10:57,    127,    0.0,   14.9,   0.00,   0.00, 1015.1,   52.1, -999.0
28-07-2022, 00:11:07,    127,    0.0,   14.9,   0.00,   0.00, 1015.1,   52.3, -999.0
28-07-2022, 00:11:17,    126,    0.0,   14.9,   0.00,   0.00, 1015.1,   52.2, -999.0
28-07-2022, 00:11:27,    127,    0.0,   15.0,   0.00,   0.00, 1015.1,   52.2, -999.0
28-07-2022, 00:11:37,    126,    0.0,   14.9,   0.00,   0.00, 1015.1,   52.3, -999.0
28-07-2022, 00:11:47,    127,    0.0,   15.0,   0.00,   0.00, 1015.1,   52.3, -999.0
28-07-2022, 00:11:57,    126,    0.0,   14.9,   0.00,   0.00, 1015.1,   52.1, -999.0
28-07-2022, 00:12:07,    126,    0.0,   14.9,   0.00,   0.00, 1015.1,   52.1, -999.0
28-07-2022, 00:12:16,    126,    0.0,   14.9,   0.00,   0.00, 1015.1,   52.3, -999.0
28-07-2022, 00:12:26,    126,    0.0,   14.9,   0.00,   0.00, 1015.1,   52.0, -999.0
28-07-2022, 00:12:37,    127,    0.0,   14.9,   0.00,   0.00, 1015.1,   52.3, -999.0
28-07-2022, 00:12:46,    126,    0.0,   15.0,   0.00,   0.00, 1015.1,   52.4, -999.0
28-07-2022, 00:12:56,    126,    0.0,   14.9,   0.00,   0.00, 1015.1,   52.3, -999.0
28-07-2022, 00:13:06,    126,    0.0,   14.9,   0.00,   0.00, 1015.1,   52.1, -999.0
28-07-2022, 00:13:16,    126,    0.0,   14.9,   0.00,   0.00, 1015.1,   52.1, -999.0
28-07-2022, 00:13:26,    126,    0.0,   14.9,   0.00,   0.00, 1015.1,   52.0, -999.0
28-07-2022, 00:13:36,    126,    0.0,   14.9,   0.00,   0.00, 1015.1,   52.2, -999.0
28-07-2022, 00:13:46,    127,    0.0,   14.9,   0.00,   0.00, 1015.1,   52.2, -999.0
28-07-2022, 00:13:56,    126,    0.0,   14.9,   0.00,   0.00, 1015.1,   52.1, -999.0
28-07-2022, 00:14:06,    127,    0.0,   14.9,   0.00,   0.00, 1015.1,   52.0, -999.0
28-07-2022, 00:14:16,    126,    0.0,   14.9,   0.00,   0.00, 1015.1,   52.2, -999.0
28-07-2022, 00:14:26,    126,    0.0,   14.9,   0.00,   0.00, 1015.1,   52.3, -999.0
28-07-2022, 00:14:36,    126,    0.0,   14.9,   0.00,   0.00, 1015.1,   52.2, -999.0
28-07-2022, 00:14:46,    127,    0.0,   14.9,   0.00,   0.00, 1015.1,   52.4, -999.0
28-07-2022, 00:14:55,    126,    0.0,   14.9,   0.00,   0.00, 1015.1,   52.4, -999.0
28-07-2022, 00:15:06,    127,    0.0,   14.9,   0.00,   0.00, 1015.1,   52.2, -999.0
28-07-2022, 00:15:16,    127,    0.0,   14.9,   0.00,   0.00, 1015.1,   51.9, -999.0
28-07-2022, 00:15:25,    127,    0.0,   14.9,   0.00,   0.00, 1015.1,   52.4, -999.0
28-07-2022, 00:15:35,    126,    0.0,   15.0,   0.00,   0.00, 1015.1,   52.3, -999.0
28-07-2022, 00:15:46,    126,    0.0,   14.9,   0.00,   0.00, 1015.1,   52.1, -999.0
28-07-2022, 00:15:55,    126,    0.0,   14.9,   0.00,   0.00, 1015.1,   52.3, -999.0
28-07-2022, 00:16:05,    126,    0.0,   14.9,   0.00,   0.00, 1015.1,   52.3, -999.0
28-07-2022, 00:16:15,    127,    0.0,   14.9,   0.00,   0.00, 1015.1,   52.1, -999.0
28-07-2022, 00:16:25,    126,    0.0,   14.9,   0.00,   0.00, 1015.1,   52.1, -999.0
28-07-2022, 00:16:35,    126,    0.0,   15.0,   0.00,   0.00, 1015.1,   52.1, -999.0
28-07-2022, 00:16:45,    127,    0.0,   14.9,   0.00,   0.00, 1015.1,   52.1, -999.0
28-07-2022, 00:16:55,    127,    0.0,   14.9,   0.00,   0.00, 1015.1,   52.0, -999.0
28-07-2022, 00:17:05,    127,    0.0,   14.9,   0.00,   0.00, 1015.1,   52.0, -999.0
28-07-2022, 00:17:15,    127,    0.0,   14.9,   0.00,   0.00, 1015.1,   52.1, -999.0
28-07-2022, 00:17:25,    127,    0.0,   14.9,   0.00,   0.00, 1015.1,   52.1, -999.0
28-07-2022, 00:17:35,    126,    0.0,   14.9,   0.00,   0.00, 1015.1,   52.0, -999.0
28-07-2022, 00:17:45,    127,    0.0,   14.9,   0.00,   0.00, 1015.0,   52.0, -999.0
28-07-2022, 00:17:55,    126,    0.0,   14.8,   0.00,   0.00, 1015.1,   52.1, -999.0
28-07-2022, 00:18:04,    126,    0.0,   14.9,   0.00,   0.00, 1015.1,   52.3, -999.0
28-07-2022, 00:18:15,    126,    0.0,   14.9,   0.00,   0.00, 1015.1,   52.3, -999.0
28-07-2022, 00:18:25,    127,    0.0,   14.9,   0.00,   0.00, 1015.1,   52.0, -999.0
28-07-2022, 00:18:34,    126,    0.0,   14.9,   0.00,   0.00, 1015.1,   52.0, -999.0
28-07-2022, 00:18:44,    127,    0.0,   14.9,   0.00,   0.00, 1015.1,   52.1, -999.0
28-07-2022, 00:18:55,    126,    0.0,   14.8,   0.00,   0.00, 1015.1,   52.1, -999.0
28-07-2022, 00:19:04,    126,    0.0,   14.9,   0.00,   0.00, 1015.1,   52.2, -999.0
28-07-2022, 00:19:14,    126,    0.0,   14.9,   0.00,   0.00, 1015.1,   52.2, -999.0
28-07-2022, 00:19:24,    127,    0.0,   14.9,   0.00,   0.00, 1015.1,   52.2, -999.0
28-07-2022, 00:19:34,    126,    0.0,   14.9,   0.00,   0.00, 1015.1,   52.3, -999.0
28-07-2022, 00:19:44,    126,    0.0,   14.9,   0.00,   0.00, 1015.1,   52.1, -999.0
28-07-2022, 00:19:54,    127,    0.0,   14.9,   0.00,   0.00, 1015.1,   52.2, -999.0
28-07-2022, 00:20:04,    126,    0.0,   14.9,   0.00,   0.00, 1015.1,   52.3, -999.0
28-07-2022, 00:20:14,    126,    0.0,   15.0,   0.00,   0.00, 1015.1,   52.2, -999.0
28-07-2022, 00:20:24,    126,    0.0,   15.0,   0.00,   0.00, 1015.1,   51.9, -999.0
28-07-2022, 00:20:34,    126,    0.0,   14.9,   0.00,   0.00, 1015.1,   51.9, -999.0
28-07-2022, 00:20:44,    126,    0.0,   14.8,   0.00,   0.00, 1015.1,   52.0, -999.0
28-07-2022, 00:20:54,    127,    0.0,   14.9,   0.00,   0.00, 1015.1,   52.0, -999.0
28-07-2022, 00:21:04,    126,    0.0,   14.9,   0.00,   0.00, 1015.1,   52.0, -999.0
28-07-2022, 00:21:14,    127,    0.0,   14.8,   0.00,   0.00, 1015.1,   51.9, -999.0
28-07-2022, 00:21:24,    127,    0.0,   14.9,   0.00,   0.00, 1015.1,   51.9, -999.0
28-07-2022, 00:21:34,    126,    0.0,   14.9,   0.00,   0.00, 1015.1,   52.0, -999.0
28-07-2022, 00:21:43,    126,    0.0,   14.8,   0.00,   0.00, 1015.1,   51.8, -999.0
28-07-2022, 00:21:54,    127,    0.0,   14.8,   0.00,   0.00, 1015.1,   51.9, -999.0
28-07-2022, 00:22:03,    126,    0.0,   14.8,   0.00,   0.00, 1015.1,   52.0, -999.0
28-07-2022, 00:22:13,    126,    0.0,   14.8,   0.00,   0.00, 1015.1,   51.9, -999.0
28-07-2022, 00:22:23,    126,    0.0,   14.8,   0.00,   0.00, 1015.1,   52.0, -999.0
28-07-2022, 00:22:33,    126,    0.0,   14.9,   0.00,   0.00, 1015.1,   52.3, -999.0
28-07-2022, 00:22:43,    126,    0.0,   14.8,   0.00,   0.00, 1015.1,   52.3, -999.0
28-07-2022, 00:22:53,    127,    0.0,   14.9,   0.00,   0.00, 1015.1,   52.2, -999.0
28-07-2022, 00:23:03,    126,    0.0,   14.9,   0.00,   0.00, 1015.1,   52.1, -999.0
28-07-2022, 00:23:13,    127,    0.0,   15.0,   0.00,   0.00, 1015.1,   52.2, -999.0
28-07-2022, 00:23:23,    126,    0.0,   14.9,   0.00,   0.00, 1015.1,   52.1, -999.0
28-07-2022, 00:23:33,    127,    0.0,   14.9,   0.00,   0.00, 1015.0,   52.1, -999.0
28-07-2022, 00:23:43,    126,    0.0,   14.9,   0.00,   0.00, 1015.1,   52.0, -999.0
28-07-2022, 00:23:53,    127,    0.0,   14.9,   0.00,   0.00, 1015.0,   51.8, -999.0
28-07-2022, 00:24:03,    127,    0.0,   14.9,   0.00,   0.00, 1015.1,   51.8, -999.0
28-07-2022, 00:24:13,    126,    0.0,   14.9,   0.00,   0.00, 1015.0,   51.9, -999.0
28-07-2022, 00:24:23,    126,    0.0,   14.9,   0.00,   0.00, 1015.1,   51.8, -999.0
28-07-2022, 00:24:33,    126,    0.0,   14.8,   0.00,   0.00, 1015.0,   51.7, -999.0
28-07-2022, 00:24:42,    127,    0.0,   14.8,   0.00,   0.00, 1015.1,   51.9, -999.0
28-07-2022, 00:24:52,    127,    0.0,   14.7,   0.00,   0.00, 1015.0,   52.0, -999.0
28-07-2022, 00:25:03,    126,    0.0,   14.7,   0.00,   0.00, 1015.0,   52.0, -999.0
28-07-2022, 00:25:12,    127,    0.0,   14.8,   0.00,   0.00, 1015.1,   52.0, -999.0
28-07-2022, 00:25:22,    126,    0.0,   14.8,   0.00,   0.00, 1015.0,   52.0, -999.0
28-07-2022, 00:25:33,    126,    0.0,   14.8,   0.00,   0.00, 1015.1,   52.2, -999.0
28-07-2022, 00:25:42,    127,    0.0,   14.7,   0.00,   0.00, 1015.0,   52.4, -999.0
28-07-2022, 00:25:52,    127,    0.0,   14.8,   0.00,   0.00, 1015.1,   52.4, -999.0
28-07-2022, 00:26:02,    127,    0.0,   14.7,   0.00,   0.00, 1015.0,   52.2, -999.0
28-07-2022, 00:26:12,    127,    0.0,   14.9,   0.00,   0.00, 1015.0,   52.3, -999.0
28-07-2022, 00:26:22,    126,    0.0,   14.8,   0.00,   0.00, 1015.0,   52.5, -999.0
28-07-2022, 00:26:32,    127,    0.0,   14.8,   0.00,   0.00, 1015.0,   52.4, -999.0
28-07-2022, 00:26:42,    126,    0.0,   14.8,   0.00,   0.00, 1015.0,   52.4, -999.0
28-07-2022, 00:26:52,    126,    0.0,   14.8,   0.00,   0.00, 1015.0,   52.3, -999.0
28-07-2022, 00:27:02,    127,    0.0,   14.8,   0.00,   0.00, 1015.0,   52.4, -999.0
28-07-2022, 00:27:12,    126,    0.0,   14.9,   0.00,   0.00, 1015.0,   52.2, -999.0
28-07-2022, 00:27:21,    126,    0.0,   14.9,   0.00,   0.00, 1015.0,   52.4, -999.0
28-07-2022, 00:27:32,    126,    0.0,   14.8,   0.00,   0.00, 1015.0,   52.2, -999.0
28-07-2022, 00:27:42,    127,    0.0,   14.9,   0.00,   0.00, 1015.1,   52.3, -999.0
28-07-2022, 00:27:51,    127,    0.0,   14.9,   0.00,   0.00, 1015.1,   52.2, -999.0
28-07-2022, 00:28:02,    127,    0.0,   14.9,   0.00,   0.00, 1015.0,   52.1, -999.0
28-07-2022, 00:28:12,    126,    0.0,   14.9,   0.00,   0.00, 1015.0,   52.0, -999.0
28-07-2022, 00:28:21,    126,    0.0,   14.9,   0.00,   0.00, 1015.0,   52.0, -999.0
28-07-2022, 00:28:31,    126,    0.0,   14.8,   0.00,   0.00, 1015.0,   52.0, -999.0
28-07-2022, 00:28:42,    126,    0.0,   14.9,   0.00,   0.00, 1015.0,   52.0, -999.0
28-07-2022, 00:28:51,    127,    0.0,   14.9,   0.00,   0.00, 1015.0,   52.0, -999.0
28-07-2022, 00:29:01,    127,    0.0,   14.9,   0.00,   0.00, 1015.0,   52.0, -999.0
28-07-2022, 00:29:11,    127,    0.0,   14.8,   0.00,   0.00, 1015.0,   52.0, -999.0
28-07-2022, 00:29:21,    126,    0.0,   14.8,   0.00,   0.00, 1015.0,   52.1, -999.0
28-07-2022, 00:29:31,    126,    0.0,   14.7,   0.00,   0.00, 1015.0,   52.1, -999.0
28-07-2022, 00:29:43,    126,    0.0,   14.8,   0.00,   0.00, 1015.0,   52.1, -999.0
28-07-2022, 00:29:51,    127,    0.0,   14.8,   0.00,   0.00, 1015.0,   52.2, -999.0
28-07-2022, 00:30:01,    127,    0.0,   14.8,   0.00,   0.00, 1015.0,   52.1, -999.0
28-07-2022, 00:30:11,    126,    0.0,   14.8,   0.00,   0.00, 1015.0,   52.1, -999.0
28-07-2022, 00:30:21,    126,    0.0,   14.8,   0.00,   0.00, 1015.0,   52.0, -999.0
28-07-2022, 00:30:31,    126,    0.0,   14.8,   0.00,   0.00, 1015.0,   52.1, -999.0
28-07-2022, 00:30:41,    127,    0.0,   14.8,   0.00,   0.00, 1015.0,   52.2, -999.0
28-07-2022, 00:30:51,    126,    0.0,   14.7,   0.00,   0.00, 1015.0,   52.4, -999.0
28-07-2022, 00:31:00,    126,    0.0,   14.8,   0.00,   0.00, 1015.0,   52.5, -999.0
28-07-2022, 00:31:11,    126,    0.0,   14.9,   0.00,   0.00, 1015.0,   52.6, -999.0
28-07-2022, 00:31:21,    126,    0.0,   14.9,   0.00,   0.00, 1015.0,   52.4, -999.0
28-07-2022, 00:31:30,    126,    0.0,   14.9,   0.00,   0.00, 1015.0,   52.3, -999.0
28-07-2022, 00:31:40,    126,    0.0,   14.9,   0.00,   0.00, 1015.0,   52.0, -999.0
28-07-2022, 00:31:50,    126,    0.0,   14.8,   0.00,   0.00, 1015.0,   51.9, -999.0
28-07-2022, 00:32:00,    127,    0.0,   14.9,   0.00,   0.00, 1015.0,   52.0, -999.0
28-07-2022, 00:32:10,    126,    0.0,   14.8,   0.00,   0.00, 1015.0,   52.1, -999.0
28-07-2022, 00:32:20,    126,    0.0,   14.8,   0.00,   0.00, 1015.0,   52.0, -999.0
28-07-2022, 00:32:30,    126,    0.0,   14.8,   0.00,   0.00, 1015.0,   51.8, -999.0
28-07-2022, 00:32:40,    127,    0.0,   14.8,   0.00,   0.00, 1015.0,   51.9, -999.0
28-07-2022, 00:32:50,    126,    0.0,   14.7,   0.00,   0.00, 1015.0,   52.0, -999.0
28-07-2022, 00:33:00,    126,    0.0,   14.7,   0.00,   0.00, 1015.1,   52.0, -999.0
28-07-2022, 00:33:10,    127,    0.0,   14.7,   0.00,   0.00, 1015.0,   52.2, -999.0
28-07-2022, 00:33:20,    126,    0.0,   14.7,   0.00,   0.00, 1015.0,   52.4, -999.0
28-07-2022, 00:33:30,    126,    0.0,   14.8,   0.00,   0.00, 1015.0,   52.5, -999.0
28-07-2022, 00:33:40,    126,    0.0,   14.7,   0.00,   0.00, 1015.0,   52.4, -999.0
28-07-2022, 00:33:50,    126,    0.0,   14.8,   0.00,   0.00, 1015.0,   52.6, -999.0
28-07-2022, 00:34:00,    126,    0.0,   14.8,   0.00,   0.00, 1015.0,   52.7, -999.0
28-07-2022, 00:34:09,    127,    0.0,   14.8,   0.00,   0.00, 1015.0,   52.5, -999.0
28-07-2022, 00:34:20,    125,    0.0,   14.8,   0.00,   0.00, 1015.0,   52.4, -999.0
28-07-2022, 00:34:30,    126,    0.0,   14.8,   0.00,   0.00, 1015.0,   52.3, -999.0
28-07-2022, 00:34:39,    127,    0.0,   14.8,   0.00,   0.00, 1015.0,   52.2, -999.0
28-07-2022, 00:34:49,    126,    0.0,   14.8,   0.00,   0.00, 1015.0,   52.1, -999.0
28-07-2022, 00:34:59,    126,    0.0,   14.8,   0.00,   0.00, 1015.0,   52.2, -999.0
28-07-2022, 00:35:09,    126,    0.0,   14.8,   0.00,   0.00, 1015.0,   52.2, -999.0
28-07-2022, 00:35:19,    127,    0.0,   14.8,   0.00,   0.00, 1015.0,   52.1, -999.0
28-07-2022, 00:35:29,    127,    0.0,   14.7,   0.00,   0.00, 1015.0,   52.0, -999.0
28-07-2022, 00:35:39,    126,    0.0,   14.8,   0.00,   0.00, 1015.0,   51.9, -999.0
28-07-2022, 00:35:49,    126,    0.0,   14.6,   0.00,   0.00, 1015.0,   52.0, -999.0
28-07-2022, 00:35:59,    126,    0.0,   14.7,   0.00,   0.00, 1015.0,   52.2, -999.0
28-07-2022, 00:36:09,    124,    0.4,   14.8,   0.00,   0.00, 1015.1,   52.7, -999.0
28-07-2022, 00:36:19,    123,    0.0,   14.7,   0.00,   0.00, 1015.0,   52.5, -999.0
28-07-2022, 00:36:29,    123,    0.0,   14.7,   0.00,   0.00, 1015.0,   52.4, -999.0
28-07-2022, 00:36:39,    123,    0.0,   14.7,   0.00,   0.00, 1015.0,   52.3, -999.0
28-07-2022, 00:36:49,    124,    0.0,   14.7,   0.00,   0.00, 1015.0,   52.2, -999.0
28-07-2022, 00:36:59,    124,    0.0,   14.7,   0.00,   0.00, 1015.0,   52.2, -999.0
28-07-2022, 00:37:09,    123,    0.0,   14.7,   0.00,   0.00, 1015.0,   52.3, -999.0
28-07-2022, 00:37:18,    123,    0.0,   14.7,   0.00,   0.00, 1015.0,   52.4, -999.0
28-07-2022, 00:37:29,    123,    0.0,   14.8,   0.00,   0.00, 1015.0,   52.5, -999.0
28-07-2022, 00:37:38,    124,    0.0,   14.8,   0.00,   0.00, 1015.0,   52.3, -999.0
28-07-2022, 00:37:48,    123,    0.0,   14.8,   0.00,   0.00, 1015.0,   52.2, -999.0
28-07-2022, 00:37:59,    123,    0.0,   14.7,   0.00,   0.00, 1015.0,   52.1, -999.0
28-07-2022, 00:38:08,    124,    0.0,   14.7,   0.00,   0.00, 1015.0,   52.3, -999.0
28-07-2022, 00:38:18,    123,    0.0,   14.6,   0.00,   0.00, 1015.0,   52.4, -999.0
28-07-2022, 00:38:28,    123,    0.0,   14.7,   0.00,   0.00, 1015.0,   52.3, -999.0
28-07-2022, 00:38:38,    123,    0.0,   14.8,   0.00,   0.00, 1015.0,   52.2, -999.0
28-07-2022, 00:38:48,    124,    0.0,   14.7,   0.00,   0.00, 1015.0,   52.1, -999.0
28-07-2022, 00:38:58,    124,    0.0,   14.7,   0.00,   0.00, 1015.0,   52.2, -999.0
28-07-2022, 00:39:08,    123,    0.0,   14.6,   0.00,   0.00, 1015.0,   52.2, -999.0
28-07-2022, 00:39:18,    123,    0.0,   14.6,   0.00,   0.00, 1015.0,   52.1, -999.0
28-07-2022, 00:39:28,    124,    0.0,   14.7,   0.00,   0.00, 1015.0,   52.2, -999.0
28-07-2022, 00:39:38,    123,    0.0,   14.7,   0.00,   0.00, 1015.0,   52.3, -999.0
28-07-2022, 00:39:48,    123,    0.0,   14.7,   0.00,   0.00, 1014.9,   52.5, -999.0
28-07-2022, 00:39:58,    123,    0.0,   14.7,   0.00,   0.00, 1015.0,   52.6, -999.0
28-07-2022, 00:40:08,    124,    0.0,   14.7,   0.00,   0.00, 1015.0,   52.6, -999.0
28-07-2022, 00:40:17,    124,    0.0,   14.7,   0.00,   0.00, 1015.0,   52.6, -999.0
28-07-2022, 00:40:28,    124,    0.0,   14.7,   0.00,   0.00, 1015.0,   52.6, -999.0
28-07-2022, 00:40:38,    124,    0.0,   14.7,   0.00,   0.00, 1015.0,   52.4, -999.0
28-07-2022, 00:40:47,    123,    0.0,   14.6,   0.00,   0.00, 1015.0,   52.5, -999.0
28-07-2022, 00:40:57,    124,    0.0,   14.6,   0.00,   0.00, 1015.0,   52.4, -999.0
28-07-2022, 00:41:08,    123,    0.0,   14.7,   0.00,   0.00, 1015.0,   52.3, -999.0
28-07-2022, 00:41:17,    123,    0.0,   14.6,   0.00,   0.00, 1015.0,   52.3, -999.0
28-07-2022, 00:41:27,    123,    0.0,   14.6,   0.00,   0.00, 1015.0,   52.2, -999.0
28-07-2022, 00:41:37,    124,    0.0,   14.7,   0.00,   0.00, 1015.0,   52.5, -999.0
28-07-2022, 00:41:47,    123,    0.0,   14.6,   0.00,   0.00, 1015.0,   52.4, -999.0
28-07-2022, 00:41:57,    124,    0.0,   14.7,   0.00,   0.00, 1015.0,   52.6, -999.0
28-07-2022, 00:42:07,    123,    0.0,   14.6,   0.00,   0.00, 1015.0,   52.6, -999.0
28-07-2022, 00:42:17,    123,    0.0,   14.7,   0.00,   0.00, 1015.0,   52.5, -999.0
28-07-2022, 00:42:27,    123,    0.0,   14.6,   0.00,   0.00, 1015.0,   52.5, -999.0
28-07-2022, 00:42:37,    124,    0.0,   14.6,   0.00,   0.00, 1015.0,   52.5, -999.0
28-07-2022, 00:42:47,    123,    0.0,   14.7,   0.00,   0.00, 1015.0,   52.4, -999.0
28-07-2022, 00:42:57,    123,    0.0,   14.7,   0.00,   0.00, 1015.0,   52.4, -999.0
28-07-2022, 00:43:07,    123,    0.0,   14.7,   0.00,   0.00, 1015.0,   52.4, -999.0
28-07-2022, 00:43:17,    124,    0.0,   14.7,   0.00,   0.00, 1015.0,   52.2, -999.0
28-07-2022, 00:43:26,    124,    0.0,   14.7,   0.00,   0.00, 1015.0,   52.1, -999.0
28-07-2022, 00:43:37,    123,    0.0,   14.6,   0.00,   0.00, 1015.0,   52.2, -999.0
28-07-2022, 00:43:47,    123,    0.0,   14.6,   0.00,   0.00, 1014.9,   52.3, -999.0
28-07-2022, 00:43:56,    124,    0.0,   14.6,   0.00,   0.00, 1014.9,   52.4, -999.0
28-07-2022, 00:44:06,    123,    0.0,   14.5,   0.00,   0.00, 1015.0,   52.5, -999.0
28-07-2022, 00:44:17,    123,    0.0,   14.5,   0.00,   0.00, 1015.0,   52.4, -999.0
28-07-2022, 00:44:26,    124,    0.0,   14.6,   0.00,   0.00, 1014.9,   52.6, -999.0
28-07-2022, 00:44:36,    123,    0.0,   14.6,   0.00,   0.00, 1015.0,   52.7, -999.0
28-07-2022, 00:44:46,    124,    0.0,   14.7,   0.00,   0.00, 1015.0,   52.7, -999.0
28-07-2022, 00:44:56,    123,    0.0,   14.7,   0.00,   0.00, 1014.9,   52.8, -999.0
28-07-2022, 00:45:06,    123,    0.0,   14.7,   0.00,   0.00, 1015.0,   52.7, -999.0
28-07-2022, 00:45:16,    124,    0.0,   14.7,   0.00,   0.00, 1015.0,   52.6, -999.0
28-07-2022, 00:45:28,    123,    0.0,   14.7,   0.00,   0.00, 1015.0,   52.6, -999.0
28-07-2022, 00:45:36,    124,    0.0,   14.6,   0.00,   0.00, 1015.0,   52.4, -999.0
28-07-2022, 00:45:46,    123,    0.0,   14.7,   0.00,   0.00, 1015.0,   52.5, -999.0
28-07-2022, 00:45:56,    123,    0.0,   14.7,   0.00,   0.00, 1015.0,   52.5, -999.0
28-07-2022, 00:46:06,    124,    0.0,   14.6,   0.00,   0.00, 1015.0,   52.4, -999.0
28-07-2022, 00:46:16,    123,    0.0,   14.7,   0.00,   0.00, 1015.0,   52.5, -999.0
28-07-2022, 00:46:26,    124,    0.0,   14.7,   0.00,   0.00, 1015.0,   52.5, -999.0
28-07-2022, 00:46:36,    124,    0.0,   14.6,   0.00,   0.00, 1015.0,   52.5, -999.0